Starlink 1973

operational
NORAD ID: 47628 Int'l Des: 2021-012 Owner: SPXS Country: US Constellation: starlink
LEOCIRCULARSTARLINK_TYPE

About Starlink 1973

Description loading...

Live Position

Loading 3D Globe...

Upcoming Passes

Altitude History

Altitude vs Time

uPlot chart will show altitude changes over time

Two-Line Element Set

1 47628U 21012J 25301.57921951 -.00002558 00000-0 -15300-3 0 9997
2 47628 53.0561 304.6765 0001697 74.9688 285.1488 15.06369967260078
Epoch: Oct 28, 2025 • Age: 18 hours

Current Status

Altitude 552.7 km
Velocity 7.59 km/s
Sub-Earth Point 53.21°N, 123.69°W
Launch Date Feb 16, 2021
Age 4.6 years
Type internet

Technical Details

Classification Payload
Mass 260.00 kg
Dry Mass 248.00 kg
Total Mass 260.00 kg
Length 0.20 m
Diameter 2.80 m
Span 9.00 m
Shape Box + pan
Manufacturer SPXS
Bus Type Starlink
Phase Status In Orbit
Owner/State SPXS/US

Large Constellations

Loading constellations...